Uitslag Triatlon Roeselare top 3

Kraftman Chrono Timing
# Naam Totaal
1 Van De Walle Vincent 00:56:45 92.53
2 Priem Whytic 00:57:26 90.78
3 Verstraete Eduard 00:58:00 90.15
4 Van Daele Tim 00:58:08 90.01
5 Dewitte Lowie 00:58:12 89.93
6 Sabbe Jasper 00:59:34 88.43
7 Vandenbroucke Sven 01:00:08 87.80
8 Steyaert Kris 01:00:14 87.69
9 Santy Vincent 01:00:24 87.51
10 Lagae Korneel 01:00:51 87.01
11 Vanhoutte Jaron 01:01:17 86.54
12 Verkempinck Ruben 01:01:33 86.24
13 Bruyneel Jurgen 01:02:16 85.45
14 Vankelecom Jeroen 01:02:24 85.31
15 Breemeersch Lieven 01:02:26 85.27
16 Van Haverbeke Arno 01:02:28 85.23
17 Lagache Stijn 01:02:35 85.11
18 Beernaert Jochen 01:02:43 84.96
19 Desmet Cis 01:03:44 83.84
20 Veranneman Tom 01:04:01 83.53
21 Goethals Angelo 01:04:11 83.34
22 Bruffaerts Stefaan 01:04:18 83.22
23 Cardon Germer 01:04:26 83.07
24 Van Hevele Stijn 01:04:34 82.92
25 Tritar Mehdi 01:04:50 82.63
26 Dekiere Thijs 01:05:02 82.41
27 Roelandts Geert 01:05:25 81.99
28 Callens Bart 01:05:32 81.86
29 Vercaigne Dieter 01:05:35 81.80
30 Devloo Dries 01:05:57 81.40
31 Rigole Filip 01:06:16 81.05
32 Boury Steven 01:06:34 80.72
33 Defauw lieven 01:06:48 80.46
34 Meul Jochen 01:07:08 80.09
35 Meerschaert Dieter 01:07:16 79.95
36 Warnez Wouter 01:07:26 79.76
37 Dewulf Christophe 01:07:27 79.75
38 Verstraete Pieter 01:07:30 79.69
39 Feryn Dries 01:07:37 79.56
40 Pype Benedikt 01:07:47 79.38
41 Van De Velde Stieven 01:07:50 79.32
42 Vanthomme Simon 01:07:50 79.32
43 Tempelaere Brecht 01:08:04 79.07
44 Malfait Gianni 01:08:11 78.94
45 De Meester Wim 01:08:20 78.77
46 Van Eeckhout Thibault 01:08:26 78.66
47 Kimpe Kim 01:08:28 78.63
48 Tuytens Stijn 01:08:30 78.59
49 De Groof Pieter 01:08:33 78.53
50 Cassaert Brecht 01:08:37 78.46
51 Calmeyn Klaas 01:08:39 78.42
52 Blontia Nico 01:08:39 78.42
53 Huyghe Stefaan 01:08:46 78.30
54 Matton Tom 01:08:47 78.28
55 Andries Louis 01:08:54 78.15
56 Watteyne Frederic 01:08:58 78.08
57 Decock Lucas 01:08:59 78.06
58 Stijn Hollevoet 01:09:01 78.02
59 Waeyaert Dieter 01:09:04 77.97
60 Toebat Andrew 01:09:05 77.95
61 Vandorpe Peter 01:09:09 77.87
62 Vermont Lies 01:09:21 74.50
63 Dousy Frederik 01:09:42 77.27
64 Naert Joran 01:09:42 77.27
65 Deslé Tim 01:09:44 77.23
66 Denecker Steven 01:09:44 77.23
67 Daems Tom 01:09:49 77.14
68 Jacobs Philippe 01:10:05 76.85
69 Vanbrabant Bjorn 01:10:08 76.79
70 Moeyaert Robin 01:10:10 76.75
71 Clauw Björn 01:10:11 76.74
72 Maes Aäron 01:10:15 76.66
73 Callebaut Christophe 01:10:16 76.64
74 Gallein Sofie 01:10:17 72.60
75 Ingelbrecht Nico 01:10:26 76.46
76 Vandekerkhove Margot 01:10:29 72.46
77 Verfaillie Marnix 01:10:31 76.37
78 Bruneel Kennith 01:10:38 76.24
79 Vancoillie Bram 01:10:49 76.04
80 Van compernolle Pieter 01:10:53 75.97
81 Decoene Sam 01:10:59 75.85
82 Borny Dimitri 01:11:28 75.32
83 Ameye Kevin 01:11:33 75.23
84 Heirman Pieter 01:11:44 75.03
85 Mat Rene 01:11:45 75.01
86 Bortier Jurgen 01:12:12 74.51
87 Vander Meiren Sam 01:12:17 74.42
88 Verholle Glenn 01:12:21 74.35
89 Deboeuf Laurens 01:12:25 74.28
90 D'haene Kurt 01:12:36 74.07
91 Cuvelier Dieter 01:12:41 73.98
92 Acke Wim 01:13:08 73.49
93 Tack Emilie 01:13:27 70.25
94 Vandevelde Liesbeth 01:14:02 69.81
95 Vanspeybroeck Bart 01:14:03 72.48
96 Ballyn Korneel 01:14:10 72.35
97 Mol Joris 01:14:13 72.29
98 Denolf Peter 01:14:21 72.15
99 Dermul Bart 01:14:26 72.06
100 Soenen Björn 01:14:31 71.96
101 Maertens Koen 01:14:39 71.82
102 Lagacie Pieter 01:14:41 71.78
103 Demasure Woud 01:14:41 71.78
104 Bossuyt Johan 01:14:42 71.76
105 Declercq Korneel 01:15:01 71.41
106 Van De Keere Kristof 01:15:04 71.36
107 Storme Anke 01:15:21 68.83
108 Lyphout Bart 01:15:25 70.97
109 Velghe Ann-Sophie 01:15:28 68.74
110 Decock Inge 01:15:35 68.66
111 Bracke Yves 01:15:42 70.66
112 Delcourt Sylvester 01:15:50 70.51
113 Depoortere Marie 01:15:57 68.38
114 Cattrysse Sam 01:16:01 70.31
115 Desmedt Filip 01:16:06 70.22
116 Lybeer Jonas 01:16:09 70.16
117 Devos Lieven 01:16:11 70.13
118 Vanderhaeghe Dries 01:16:11 70.13
119 Planckaert Nico 01:16:15 70.05
120 Loontjens Quinten 01:16:18 70.00
121 Saelen Mathieu 01:16:24 69.89
122 Bruneel Axel 01:16:27 69.83
123 Pardaens Bert 01:16:29 69.80
124 Cartreul Annelies 01:16:58 67.63
125 Meurisse Ricardo 01:16:58 69.27
126 Vanderdonckt Stijn 01:17:02 69.19
127 Hollevoet Steven 01:17:08 69.08
128 Carly Rien 01:17:10 69.05
129 Declerck Sofie 01:17:22 67.33
130 Allaert Celine 01:17:23 67.32
131 Dewyspelaere Michiel 01:17:23 68.81
132 Vancraeynest Koen 01:17:25 68.77
133 Gruyaert Emmerson 01:17:27 68.73
134 Van Haute Rens 01:17:32 68.64
135 Secember Bjorn 01:17:58 68.16
136 Braeye Toon 01:18:27 67.63
137 Godderis Luc 01:19:01 67.01
138 Lambelin Andy 01:19:08 66.88
139 Geuns Justine 01:19:12 65.96
140 Prils Stephan 01:19:25 66.57
141 Vuylsteke Martijn 01:19:43 66.24
142 Dejonghe Kaat 01:19:55 65.43
143 De Jaeger Jasper 01:20:08 65.78
144 Peeleman Dorien 01:20:21 65.11
145 Dils Sam 01:20:25 65.47
146 De Laere Gregory 01:20:31 65.36
147 Hanssens Annelien 01:20:39 64.88
148 Gryp Servaas 01:20:42 65.15
149 Beelen Els 01:20:45 64.81
150 Favyts Jurgen 01:20:53 64.95
151 Deman Nel 01:21:20 64.37
152 Decoster Ruben 01:21:25 64.36
153 Fehervari William 01:21:33 64.22
154 Baert Wouter 01:21:35 64.18
155 Depoortere Dries 01:21:40 64.09
156 Goossens Martin 01:21:42 64.05
157 Vandewalle Tania 01:21:48 64.03
159 Rooryck Jasmine 01:22:12 63.73
160 Hemelaere Harold 01:22:22 63.32
161 Eeckhout Hans 01:22:23 63.30
162 Coysman Ulrike 01:22:27 63.54
163 Devriendt Griet 01:22:30 63.51
164 Vervaet Sarah 01:22:40 63.38
165 Lievens Jeremy 01:22:40 62.99
166 Brecht Brackeva 01:22:48 62.84
167 Vanhecke Stan 01:22:49 62.82
168 Vandenhende Arne 01:22:50 62.80
169 Claus Mike 01:23:30 62.07
170 Geerardyn Gino 01:23:38 61.92
171 Vermeulen Ward 01:23:46 61.78
172 Decuypere Lore 01:23:51 62.50
173 Ghekiere Jasper 01:24:36 60.86
174 Maelfait Steven 01:24:49 60.62
175 Jacobs Sophie 01:24:52 61.74
176 Cherlet Tineke 01:25:32 61.25
177 Lesage Wim 01:25:46 59.57
178 Geuns Isolde 01:26:30 60.53
179 Rondelez Tom 01:26:32 58.73
180 Vranken Evelyn 01:26:44 60.35
181 Brusselle Charlotte 01:26:48 60.30
182 De Greef Bruno 01:26:56 58.29
183 Grymonprez Jens 01:27:06 58.11
184 Vanoplynes Steven 01:27:16 57.92
185 Crispeyn Jimmy 01:28:08 56.97
186 verlinde lindsay 01:29:32 58.27
187 Gysemans Stijn 01:29:45 55.19
188 Naessens Elke 01:30:04 57.87
189 Vanneste Heidi 01:30:46 57.35
190 Heremans Charlotte 01:30:53 57.26
191 Verschoore Hans 01:31:27 53.32
192 Cornet Thomas 01:31:45 52.98
193 Holderbeke Arne 01:32:05 52.62
194 Schoutteet Annelies 01:32:14 56.26
195 Parmentier Margo 01:32:35 56.00
196 Dendooven Matthias 01:32:36 52.05
197 Van De Calseyde Bruno 01:33:42 50.84
198 Vandemoortele Natalie 01:34:07 54.85
199 Dekein Jessie 01:34:50 54.32
200 Notredame Filip 01:34:50 49.59
201 Declercq Koen 01:34:59 49.42
202 De Costere Valerie 01:35:04 54.15
203 Versyck Dieter 01:35:11 49.20
204 Van Boven Nicolas 01:35:16 49.11
205 Spaas Maxime 01:35:21 49.02
206 Molik Christian 01:35:31 48.84
207 Burkhardt Arthur 01:35:36 48.74
208 Verkinderen Carine 01:36:13 53.29
209 Jeandarme Philip 01:37:07 47.07
210 Cornillie Bieke 01:37:30 52.33
211 Verbrugghe Glenn 01:37:38 46.51
212 Gentier Chris 01:39:25 44.54
213 Vanlancker Marjan 01:39:28 50.87
214 Malfait GaËtan 01:40:14 43.64
215 Deschryver Laura 01:40:53 49.81
216 Chapaux Francois 01:43:04 40.52
217 De Haes Stijn 01:44:23 39.07
218 Delhoulle Sophie 01:45:51 46.11
219 Bostoen Glenn 01:46:03 37.24
220 Theunissen Tinneke 01:48:10 44.39
221 Locus Sophie 01:48:21 44.25
222 Tsagaraev Salman 01:50:45 31.56
223 Paul Alexandra 01:53:05 40.73
224 Baeke Ingrid 01:58:10 36.94
225 Maerschalck Marianne 01:58:10 36.44

Reacties

  • Nog geen reacties beschikbaar